Regional Weather Roundup
Issued by NWS

Home | Current Version | Previous Version | Text Only | Print | Product List | Glossary On
Versions: 1 2 3 4 5 6 7 8 9 10 11 12 13 14 15 16 17 18 19 20 21 22 23 24 25 26 27 28 29 30 31 32 33 34 35 36 37 38 39 40 41 42 43 44 45 46 47 48 49 50
000
ASUS44 KLIX 240610
RWRLA
LOUISIANA WEATHER ROUNDUP
NATIONAL WEATHER SERVICE NEW ORLEANS LA
100 AM CDT THU JUL 24 2014

NOTE: "FAIR" INDICATES FEW OR NO CLOUDS BELOW 12,000 FEET WITH NO
      SIGNIFICANT WEATHER AND/OR OBSTRUCTIONS TO VISIBILITY.
      SKY/WX - SKY CONDITION AND SIGNIFICANT WEATHER.
      TMP - AIR TEMPERATURE.    DP   - DEWPOINT TEMPERATURE.
      RH  - RELATIVE HUMIDITY.  PRES - PRESSURE.
      HX  - HEAT INDEX.         WCI  - WIND CHILL INDEX.

*  THESE STATIONS ARE NOT NWS OR FAA STATIONS AND ARE NOT UNDER
   NWS QUALITY CONTROL.

LAZ040-048-061>063-065-066-069-240700-
SOUTHEAST LOUISIANA

CITY           SKY/WX    TMP DP  RH WIND       PRES   REMARKS
N.O. AUDUBON     N/A     79  73  82 MISG        N/A
6HR MIN TEMP:  78; 6HR MAX TEMP:  82;

N.O. INTL ARPT MOCLDY    77  73  87 S5        29.98F
6HR MIN TEMP:  76; 6HR MAX TEMP:  81;

N.O. LAKEFRONT CLEAR     78  73  84 S5        29.99F
6HR MIN TEMP:  77; 6HR MAX TEMP:  82;

N.O. DOWNTOWN* FAIR      79  70  73 SE5       29.99F
6HR MIN TEMP:  79; 6HR MAX TEMP:  82;

SLIDELL        CLEAR     73  70  90 CALM      29.99S
6HR MIN TEMP:  73; 6HR MAX TEMP:  82;

BATON ROUGE    PTCLDY    77  73  87 CALM      29.99R
6HR MIN TEMP:  76; 6HR MAX TEMP:  83;

BOOTHVILLE       N/A     80  74  81 S6        30.00F
6HR MIN TEMP:  79; 6HR MAX TEMP:  82; 6HR PCP: TRACE;

BELLE CHASSE   CLEAR     75  71  87 CALM      29.98F
6HR MIN TEMP:  74; 6HR MAX TEMP:  81;

BOGALUSA*      FAIR      75  71  87 SW3       30.00F
6HR MIN TEMP:  75; 6HR MAX TEMP:  84;

GALLIANO*      NOT AVBL
NEW ROADS*     NOT AVBL
GONZALES*      FAIR      74  74  99 CALM      29.98F
6HR MIN TEMP:  74; 6HR MAX TEMP:  82;

HAMMOND*       NOT AVBL
HOUMA*         NOT AVBL
PORT FOURCHON* PTCLDY    81  75  83 S7        30.00F

$$

LAZ041-044-053-054-240700-
SOUTHWEST LOUISIANA

CITY           SKY/WX    TMP DP  RH WIND       PRES   REMARKS
LAKE CHARLES   CLOUDY    75  71  87 E6        29.97F
6HR MIN TEMP:  75; 6HR MAX TEMP:  87; 6HR PCP: TRACE;

LAFAYETTE      MOCLDY    77  73  87 NE5       29.99S
6HR MIN TEMP:  77; 6HR MAX TEMP:  84;

PATTERSON      CLEAR     75  73  94 SE3       30.03S
6HR MIN TEMP:  75; 6HR MAX TEMP:  81;

SALT POINT       N/A     79  75  87 CALM      29.98S
6HR MIN TEMP:  79; 6HR MAX TEMP:  85;

NEW IBERIA     PTCLDY    76  74  93 SE6       29.99S
6HR MIN TEMP:  76; 6HR MAX TEMP:  84;

CHENAULT AIRPK NOT AVBL

$$

LAZ027-028-240700-
CENTRAL LOUISIANA

CITY           SKY/WX    TMP DP  RH WIND       PRES   REMARKS
FORT POLK      CLOUDY    73  71  93 S3        29.96F
6HR MIN TEMP:  72; 6HR MAX TEMP:  81; 6HR PCP:  0.47;

ALEXANDRIA INT CLOUDY    73  71  93 NW5       29.96F
6HR MIN TEMP:  73; 6HR MAX TEMP:  86; 6HR PCP: TRACE;

ALEXANDRIA     MOCLDY    73  70  90 CALM      29.97F FOG
6HR MIN TEMP:  73; 6HR MAX TEMP:  85; 6HR PCP:  0.32;


$$

LAZ001-002-240700-
NORTHWEST LOUISIANA

CITY           SKY/WX    TMP DP  RH WIND       PRES   REMARKS
SHREVEPORT     MOCLDY    71  68  90 W5        29.96S
6HR MIN TEMP:  70; 6HR MAX TEMP:  87; 6HR PCP: TRACE;

BARKSDALE AFB  MOCLDY    71  70  96 NW3       29.97S
6HR MIN TEMP:  69; 6HR MAX TEMP:  85; 6HR PCP:  0.02;

DTN SHREVEPORT NOT AVBL

$$

LAZ014-016-240700-
NORTHEAST LOUISIANA

CITY           SKY/WX    TMP DP  RH WIND       PRES   REMARKS
MONROE         PTCLDY    70  67  90 N5        29.98R
6HR MIN TEMP:  70; 6HR MAX TEMP:  88;

TALLULAH       CLEAR     72  70  93 E3        29.96F
6HR MIN TEMP:  72; 6HR MAX TEMP:  88;


$$



USA.gov is the U.S. government's official web portal to all federal, state and local government web resources and services.